Wind_Speed
1 2 2 2 1 1 4 4 2 9 4 1 9 5 3 1 3 3 0 10 23 28 25 25 24 23 22 22 22 22 21 20 19 19 19 18 17 18 19 20 20 18 17 17 16 16 15 13 13
0 3 1 1 3 5 4 2 10 9 9 3 7 2 1 1 2 3 10 14 25 28 26 24 25 23 22 21 20 20 20 19 19 19 18 17 17 17 18 18 17 16 15 15 14 13 13 11 10
2 2 2 2 2 7 5 10 14 14 2 7 6 2 2 4 2 6 3 22 25 25 24 25 26 24 22 21 21 20 19 19 19 18 17 16 16 16 16 17 16 15 14 13 13 13 13 11 10
2 2 2 2 7 1 4 13 13 5 4 3 6 4 4 5 1 5 18 23 26 26 26 29 27 25 23 22 20 20 19 19 18 17 17 16 15 15 16 15 15 13 12 11 11 11 9 9 9
3 0 2 3 2 3 5 10 10 0 2 4 2 4 2 3 4 12 21 22 25 24 23 27 28 26 24 22 20 19 19 19 18 17 15 15 15 14 14 13 13 13 11 10 8 7 7 7 7
2 1 2 4 1 3 5 11 6 1 1 5 4 4 2 1 5 13 17 20 22 24 23 22 26 24 23 22 21 19 18 17 16 16 15 14 13 13 12 12 11 11 9 8 7 5 4 4 4
2 1 3 3 0 2 5 13 10 3 3 3 6 4 2 5 8 12 14 18 20 20 20 19 21 24 21 19 18 18 18 17 16 15 14 13 12 11 11 10 9 8 7 6 5 4 3 2 1
3 2 5 2 2 3 7 12 3 2 3 5 3 4 4 9 14 14 15 18 19 20 19 19 18 18 19 18 19 18 17 16 16 16 15 14 12 11 10 10 8 6 5 4 4 3 3 3 3
2 2 3 4 2 4 7 9 3 4 4 3 2 1 2 17 17 16 15 17 17 18 19 19 19 19 17 16 18 18 17 16 15 14 14 14 11 11 10 10 10 8 6 5 5 5 5 6 6
1 0 3 2 2 6 8 4 9 3 3 1 3 3 10 17 19 20 20 21 21 21 21 20 20 20 20 18 18 18 16 15 14 14 15 13 12 11 10 10 9 8 8 8 7 7 7 7 5
2 1 1 2 6 5 5 5 2 3 3 5 4 6 12 17 19 19 21 23 24 20 19 21 21 22 21 19 17 15 15 15 15 16 16 14 12 11 10 9 7 7 8 6 6 6 6 6 6
2 2 3 3 1 1 5 6 3 3 3 4 6 9 14 16 17 22 22 21 18 19 21 23 23 22 20 17 18 17 16 15 14 15 18 16 14 13 11 9 8 7 7 7 6 5 6 7 8
2 2 4 7 9 5 2 4 3 5 11 8 2 10 14 15 19 19 18 18 18 22 23 22 22 21 21 22 19 20 21 21 18 18 19 17 15 14 12 10 9 9 8 7 7 7 7 8 9
2 3 6 5 5 2 4 2 1 9 14 5 4 9 11 16 21 18 19 21 22 22 21 21 22 20 20 22 21 20 22 21 21 19 19 21 18 17 14 12 11 11 10 9 9 9 9 10 12
1 4 3 3 4 4 2 5 6 14 11 8 7 10 11 13 16 26 25 21 16 12 13 17 18 19 21 21 22 20 21 20 19 19 21 21 19 17 15 13 14 14 11 12 11 12 13 15 14
1 1 3 3 5 2 3 6 8 14 11 9 10 11 13 15 21 21 11 6 4 5 5 9 12 15 18 18 16 17 16 15 15 15 15 18 19 18 16 13 13 12 12 13 14 12 11 13 12
4 3 2 2 2 6 4 1 4 11 10 10 11 11 8 11 10 9 7 3 3 1 4 3 6 9 12 13 15 15 14 15 13 12 13 16 19 18 17 16 16 15 15 13 13 13 11 11 12
3 2 1 3 0 6 2 1 5 9 9 10 12 14 14 10 10 10 8 4 5 5 5 4 0 4 9 11 10 10 13 14 16 16 16 17 18 16 16 16 16 16 15 14 14 16 14 15 14
5 3 4 4 5 3 2 1 7 7 10 12 14 14 14 13 13 14 14 13 11 12 10 9 4 2 1 3 4 6 11 12 11 15 18 19 19 16 17 18 20 19 19 18 19 17 18 16 16
5 3 4 7 2 4 3 3 4 9 9 10 11 11 13 12 13 17 18 17 18 18 17 16 13 11 9 6 1 4 6 5 4 6 9 12 16 18 23 24 21 19 17 20 22 23 17 14 12
5 5 4 5 3 3 3 3 5 3 6 8 11 9 10 11 11 13 19 20 18 20 20 23 20 21 17 15 13 10 7 6 10 16 15 15 11 10 17 18 18 16 17 18 22 22 20 17 9
5 11 6 4 3 6 1 6 4 4 1 7 9 9 9 10 9 11 17 20 21 20 19 12 11 13 12 12 22 25 22 15 12 15 16 21 21 22 13 13 10 4 13 21 19 14 18 12 12
4 8 8 5 7 3 6 6 4 3 7 2 6 7 7 7 8 10 14 18 19 19 21 25 27 28 27 22 21 21 21 20 12 15 17 17 20 13 11 16 17 24 23 20 20 21 21 17 13
4 3 3 2 4 8 10 8 5 5 4 5 2 3 4 5 8 12 15 17 19 18 20 22 25 24 24 23 24 21 20 20 21 12 11 14 13 11 8 2 11 18 17 20 18 14 15 14 13
5 4 3 5 5 6 4 5 7 5 4 4 7 4 4 5 8 12 15 17 17 17 17 18 21 21 22 22 20 18 16 20 20 20 13 8 6 11 13 11 8 5 4 4 7 10 11 12 9
8 8 6 5 4 3 3 6 2 4 5 5 6 7 7 7 8 11 12 11 12 12 12 14 15 16 15 18 18 16 19 20 18 10 6 5 6 6 11 12 11 10 10 9 9 6 5 6 7
6 7 1 4 2 3 6 2 5 6 9 8 8 8 9 10 11 11 10 12 11 10 9 10 13 14 13 13 14 15 14 12 11 9 6 6 8 12 11 12 12 10 10 10 9 7 6 5 5
5 10 4 2 5 6 5 4 5 11 16 14 13 12 11 12 12 10 11 8 4 3 5 8 10 10 11 11 11 12 11 8 7 6 3 5 8 11 14 15 13 12 9 9 8 8 7 7 6
5 5 1 1 3 7 10 5 7 15 16 19 16 15 14 15 14 12 13 6 1 2 2 2 3 7 8 9 9 8 7 4 2 1 3 6 9 10 14 17 18 16 12 11 10 10 10 9 8
1 7 12 9 10 3 3 8 3 6 8 15 15 15 15 16 14 12 13 9 7 6 5 3 2 1 4 6 5 5 5 5 5 6 6 7 8 9 11 16 17 16 15 13 11 10 9 12 11
Wind_Direction
297 333 310 262 223 91 68 25 317 339 320 198 146 191 218 145 202 293 147 164 155 153 159 163 161 159 158 156 154 152 148 145 140 134 129 123 115 108 107 108 110 111 111 109 108 107 105 105 103
51 104 25 321 54 64 27 335 326 328 309 200 162 140 17 251 43 71 130 164 158 156 160 162 164 162 161 157 155 155 152 149 144 140 135 130 122 114 110 113 113 115 114 113 110 106 103 97 94
131 146 286 53 83 55 349 348 331 330 171 161 132 42 15 351 58 158 187 158 158 158 161 165 166 165 165 163 160 159 156 152 149 144 140 136 130 122 116 115 119 119 119 116 110 103 96 91 84
172 163 96 45 86 110 313 335 346 345 147 161 131 116 97 28 26 178 154 160 161 164 166 169 171 169 168 167 164 163 161 157 156 152 149 144 139 136 130 126 125 123 123 119 114 107 95 87 82
57 194 93 99 88 286 280 320 338 234 100 102 154 117 73 42 63 143 156 164 168 168 170 173 174 173 172 170 168 168 166 163 162 160 157 153 148 145 140 137 134 131 130 126 121 115 107 101 84
121 304 140 124 129 280 302 343 347 123 121 127 120 123 115 122 127 154 164 171 177 174 172 176 181 179 176 175 171 172 171 168 167 166 165 162 158 153 151 151 147 142 140 137 133 132 127 115 100
130 150 114 134 111 26 10 340 29 18 181 142 130 136 98 175 159 165 172 176 181 181 177 177 180 184 182 180 178 176 175 173 173 173 172 171 168 165 162 161 160 153 155 156 158 157 169 160 174
102 104 141 159 123 53 347 337 280 321 83 127 187 181 161 173 165 168 177 180 182 185 185 184 181 184 181 185 185 183 183 181 180 179 179 180 179 176 177 182 182 179 175 181 199 203 226 235 239
165 148 151 134 135 348 336 346 338 309 235 181 146 170 34 151 159 163 174 185 188 192 192 189 188 186 187 186 190 192 190 189 186 186 187 188 186 191 196 200 197 193 201 216 229 238 247 253 256
75 130 152 104 181 320 315 304 320 323 336 193 184 90 140 161 171 172 184 191 195 194 195 196 194 193 192 193 192 194 191 190 189 190 191 190 195 196 197 209 210 216 221 230 243 255 261 278 267
134 68 163 200 244 259 296 298 271 285 273 261 265 192 176 180 186 190 198 199 199 198 199 202 201 201 197 197 197 197 196 197 198 199 198 199 197 203 204 213 218 227 240 243 252 265 272 271 277
148 188 221 290 258 260 283 307 264 240 265 2 295 193 177 188 199 199 203 203 200 201 206 206 205 206 203 203 203 200 200 202 205 207 207 205 203 207 208 213 218 227 228 245 259 269 276 284 285
173 184 207 274 293 277 258 240 283 292 312 325 240 176 189 198 208 211 213 215 208 209 210 206 207 210 209 209 206 206 205 210 210 213 213 211 209 212 214 219 224 227 234 245 259 268 275 282 279
191 266 284 305 310 284 314 18 234 6 343 329 240 230 211 212 209 208 216 215 212 215 210 207 211 213 216 219 218 216 215 217 217 217 217 219 217 217 218 223 231 238 241 249 261 272 280 280 282
112 291 325 50 349 38 311 96 39 348 341 7 322 266 247 234 231 223 220 220 226 232 226 220 217 218 224 229 229 226 224 220 222 225 228 228 228 229 225 226 235 244 252 261 271 279 280 280 281
101 91 161 26 331 36 284 127 29 11 24 20 339 312 253 237 234 243 266 304 265 243 263 247 239 240 240 237 241 240 244 238 240 240 238 236 238 241 240 239 240 246 256 262 272 277 268 268 268
35 115 31 334 45 338 352 81 29 23 21 15 7 356 295 257 267 285 289 266 122 40 271 266 251 249 257 258 256 253 257 251 257 260 252 252 248 247 244 243 253 253 256 256 260 267 257 259 250
140 150 193 267 125 307 285 118 25 27 27 32 24 18 15 360 8 5 30 90 105 72 52 56 307 256 281 277 266 269 266 264 259 265 265 264 261 256 249 249 248 247 249 251 256 255 252 256 253
141 167 264 263 246 270 271 203 35 28 35 28 29 25 21 20 23 41 60 64 71 65 70 70 90 192 237 271 273 269 269 266 264 263 270 270 265 261 256 250 247 240 240 242 247 249 247 252 253
167 191 252 287 197 244 306 188 81 39 38 37 28 28 26 26 31 45 56 64 70 68 72 80 84 94 102 115 127 291 283 292 296 298 293 289 275 265 259 253 245 239 237 241 244 238 244 246 233
197 219 225 274 319 211 254 204 198 114 65 53 43 35 31 32 46 54 62 66 70 73 78 86 83 85 92 103 98 83 62 42 34 38 23 357 333 273 259 255 242 243 245 241 246 245 238 248 230
228 210 231 242 263 274 297 278 211 179 74 45 41 37 30 39 52 66 74 74 76 76 74 78 78 77 86 94 96 89 88 75 63 49 10 352 343 318 299 263 229 252 277 267 264 270 249 263 286
227 156 192 227 231 228 212 251 235 176 188 60 41 33 38 48 67 74 86 92 87 86 82 81 76 71 70 69 78 99 107 107 79 53 20 346 333 305 263 229 250 279 269 254 250 255 269 280 290
141 172 122 124 187 245 241 233 215 205 168 152 108 60 53 74 95 99 103 105 101 100 96 92 87 81 75 77 89 99 102 99 107 84 44 37 8 357 3 241 256 249 257 255 257 263 276 284 279
187 195 250 222 205 254 156 208 270 175 171 173 162 161 140 132 131 125 122 115 110 102 94 91 92 99 104 99 95 97 95 83 77 79 110 60 330 359 3 13 43 58 4 302 279 282 284 277 268
194 207 226 254 228 247 175 228 201 178 152 166 170 175 168 162 159 147 133 116 106 104 100 97 96 98 96 100 96 83 80 77 80 88 99 66 338 20 354 358 5 21 21 10 0 344 306 274 261
168 208 273 221 80 253 243 224 242 193 199 187 189 186 183 177 173 160 140 125 109 104 103 102 97 85 85 82 84 86 79 70 85 75 38 16 347 336 340 345 346 0 2 6 4 358 360 345 297
226 144 173 189 240 239 209 237 238 210 219 206 205 201 190 185 182 175 163 149 110 87 107 111 106 102 98 99 104 101 96 90 75 59 18 331 321 325 329 332 334 339 343 343 357 353 357 6 358
157 195 89 181 208 256 266 232 214 211 211 203 205 202 192 190 190 184 185 191 277 278 170 133 131 126 107 90 85 77 72 76 78 147 294 296 310 313 314 313 319 322 329 328 340 351 346 351 355
196 243 206 221 217 232 280 262 172 243 215 197 199 198 194 197 196 195 200 229 274 209 167 150 158 184 121 100 64 24 36 45 30 21 5 332 318 317 321 317 318 320 320 320 323 331 340 337 339
Height
802 801 799 799 805 800 815 811 801 799 796 787 784 792 795 792 799 811 796 799 802 805 811 815 818 821 824 825 827 828 829 831 833 835 837 838 839 840 841 842 844 845 846 847 847 848 849 849 849
802 802 801 799 807 816 815 804 803 797 790 785 786 788 793 795 791 795 798 800 804 805 810 815 818 821 824 826 828 830 831 832 834 836 838 840 841 842 843 844 846 847 849 849 850 850 850 851 852
803 803 801 805 818 822 817 798 795 790 786 784 788 785 790 795 794 796 798 800 803 808 811 814 817 820 823 826 827 830 832 833 836 838 840 842 843 844 845 846 848 849 850 851 851 852 852 852 852
803 803 806 809 818 813 809 796 794 794 786 782 781 794 790 795 794 795 798 801 804 806 809 812 816 818 821 824 828 830 832 833 837 838 840 842 843 845 845 847 848 850 851 852 852 853 853 853 853
803 803 812 820 819 812 803 796 797 793 788 785 783 795 795 797 796 796 798 802 805 809 811 813 815 818 821 824 828 831 833 834 836 839 841 843 844 846 847 849 850 850 851 853 854 855 855 855 854
803 807 816 820 819 809 801 795 794 792 786 786 786 791 795 797 798 799 801 803 808 809 812 816 819 821 822 825 827 831 834 836 838 841 843 844 846 847 849 851 851 851 852 853 853 854 855 855 855
804 809 819 823 819 810 803 794 794 793 788 788 783 794 795 796 798 801 803 806 809 812 815 817 820 823 825 828 830 833 834 836 838 841 844 846 847 849 850 852 853 853 853 853 854 854 854 854 854
806 808 823 824 819 813 800 795 791 790 790 784 784 793 794 791 797 800 803 806 809 812 815 818 821 824 825 828 830 832 835 836 838 839 841 845 847 849 850 852 853 854 854 854 855 854 854 853 853
806 813 820 821 821 812 798 800 786 785 786 784 784 785 787 790 795 799 803 806 808 811 814 817 820 822 826 829 830 833 835 837 838 841 842 844 847 849 850 852 852 853 854 854 854 854 853 852 852
806 815 816 814 809 807 801 803 794 790 787 784 785 788 790 792 794 796 799 802 805 809 813 816 819 821 824 826 829 832 834 837 838 840 841 844 845 847 850 851 852 853 853 853 852 853 853 852 852
812 814 813 807 805 805 802 799 794 791 792 782 783 784 789 791 792 793 795 797 801 807 812 814 817 819 821 825 828 831 834 836 837 838 840 842 843 846 848 850 851 852 852 853 852 852 853 853 852
812 812 810 802 801 804 803 797 795 793 783 782 781 781 786 789 789 789 792 797 801 805 808 810 814 817 820 824 825 827 830 833 836 837 838 840 841 843 846 848 848 849 850 851 851 851 851 851 851
810 808 807 799 799 800 801 798 796 791 783 783 782 784 785 786 788 791 794 797 800 801 804 809 813 815 818 820 821 823 825 827 831 833 835 838 839 841 844 845 847 848 849 849 849 849 849 849 848
807 807 804 800 798 796 799 796 795 790 788 784 785 785 785 784 784 789 791 792 794 797 802 806 810 814 818 819 820 822 823 825 827 829 832 834 836 837 841 842 844 846 846 847 847 847 847 846 845
806 809 803 802 800 797 797 800 805 800 792 789 787 785 785 785 788 784 783 789 796 803 806 807 810 813 815 817 820 822 822 824 826 828 830 833 835 836 838 839 841 843 845 844 844 843 843 842 841
811 812 814 804 803 797 797 812 807 803 798 797 793 788 782 781 783 786 794 800 801 804 806 809 813 815 817 818 821 824 826 827 828 830 831 833 834 836 837 838 838 840 841 841 841 840 838 837 837
815 823 823 813 804 803 801 804 807 806 805 803 797 790 784 782 787 793 796 798 800 801 803 805 809 813 816 819 821 822 825 826 828 830 830 831 832 832 834 834 835 836 837 837 837 837 834 832 831
825 825 824 822 808 802 805 805 807 809 809 808 803 796 791 790 794 797 797 799 799 801 802 802 805 807 810 814 816 821 824 825 825 826 827 829 829 831 831 832 832 833 834 833 833 833 829 827 827
817 823 825 811 806 809 804 808 812 811 810 810 807 805 801 799 800 800 799 800 801 800 800 800 802 803 806 811 814 818 819 822 822 824 823 824 826 828 827 826 826 826 826 828 827 827 824 823 825
818 821 818 806 805 806 801 807 813 812 816 818 818 817 811 807 804 804 804 802 801 801 801 801 801 799 800 805 809 814 817 819 820 820 822 824 826 825 824 822 821 820 821 821 822 821 820 820 821
815 817 814 812 806 804 805 807 811 813 814 817 821 820 817 815 811 810 808 807 806 803 803 803 803 799 799 798 800 806 814 819 821 820 822 824 824 823 823 819 818 818 819 816 816 817 817 817 816
815 802 804 810 813 816 807 817 809 812 814 817 823 823 823 820 818 815 813 811 810 809 809 807 805 802 801 802 796 793 810 820 822 821 821 823 823 827 815 815 816 816 817 818 818 821 815 815 815
800 799 804 805 809 814 810 815 792 813 812 816 823 825 825 824 821 820 819 816 815 815 813 810 808 804 800 796 793 803 810 809 817 816 821 818 814 822 817 817 819 811 809 813 814 816 814 814 813
791 800 808 813 810 818 800 807 797 797 801 815 823 825 826 826 824 823 822 821 818 817 815 813 809 807 806 807 810 812 812 810 802 812 816 818 823 825 823 817 814 811 811 813 809 810 810 808 808
793 801 814 818 820 814 813 815 791 801 809 811 819 824 826 826 824 824 824 823 822 820 818 816 814 812 811 812 815 816 815 808 803 796 809 820 827 826 823 820 813 811 813 811 809 806 805 804 804
792 792 805 827 820 805 820 809 791 802 808 812 817 822 823 825 825 824 824 824 824 823 821 819 819 818 819 818 818 820 816 813 811 818 820 818 826 816 822 820 815 809 807 807 806 805 803 800 799
793 799 791 807 828 822 794 806 800 806 808 811 813 817 819 820 821 822 825 825 825 824 823 822 820 821 822 821 821 818 817 819 819 821 822 821 821 819 816 815 815 810 809 806 805 806 802 798 796
781 786 802 805 819 826 809 809 787 806 799 802 806 810 814 818 819 821 823 823 823 824 824 824 823 823 823 821 820 818 818 820 820 820 823 825 823 819 815 813 813 811 809 809 806 805 802 797 796
791 789 801 796 802 800 800 790 776 777 782 791 795 801 807 812 815 818 821 822 822 822 823 824 824 824 824 825 825 823 822 822 821 819 821 822 821 818 816 816 811 809 807 807 805 802 801 798 795
780 776 778 788 798 807 806 789 781 781 781 785 789 796 803 807 811 815 818 819 820 821 822 823 824 825 824 825 825 826 826 825 824 822 821 823 822 820 817 816 811 808 805 803 802 800 796 797 795